Moffett NAS, CA

8:29 PM PDT on May 26, 2017 (GMT -0700)
Moffett Federal Air Field

Weather History for KNUQ - September, 2011

Change the Weather History Date:

Monday, September 26, 2011

  Actual Average Record
Temperature  
Mean Temperature 67 °F 67 °F  
Max Temperature 80 °F 77 °F 95 °F (1999)
Min Temperature 54 °F 57 °F 42 °F (1948)
Degree Days  
Heating Degree Days 0    
Month to date heating degree days 0  
Since 1 July heating degree days 10  
Cooling Degree Days 2    
Month to date cooling degree days 118  
Year to date cooling degree days 353  
Growing Degree Days 18 (Base 50)    
Moisture  
Dew Point 51 °F    
Average Humidity 63    
Maximum Humidity 86    
Minimum Humidity 39    
Precipitation  
Precipitation 0.00 in 0.01 in 0.36 in (1986)
Month to date precipitation T 0.14  
Year to date precipitation 9.50 9.80  
Since 1 July precipitation T  
Sea Level Pressure  
Sea Level Pressure 30.05 in    
Wind  
Wind Speed 4 mph (NNW)    
Max Wind Speed 16 mph    
Max Gust Speed 18 mph    
Visibility 10 miles    
Events      
T = Trace of Precipitation, MM = Missing Value Source: NWS Daily Summary

Daily Weather History Graph

Daily Weather History Graph

Search for Another Location

Airport or City:

Trip Planner

Search our weather history database for the weather conditions in past years. The results will help you decide how hot, cold, wet, or windy it might be!

Date:

Astronomy

Sep. 26, 2011 Rise Set
Actual Time 6:59 AM PDT 6:59 PM PDT
Civil Twilight 6:33 AM PDT 7:25 PM PDT
Nautical Twilight 6:02 AM PDT 7:55 PM PDT
Astronomical Twilight 5:32 AM PDT 8:26 PM PDT
Moon 6:05 AM PDT (9/26) 6:18 PM PDT (9/26)
Length of Visible Light 12h 52m
Length of Day
11h 59m
Waning Crescent, 1% of the Moon is Illuminated
Sep 26
Waning Crescent
Sep 27
New
Oct 3
First Quarter
Oct 11
Full
Oct 19
Last Quarter

Hourly Weather History & Observations

Time (PDT) Temp. Dew Point Humidity Pressure Visibility Wind Dir Wind Speed Gust Speed Precip Events Conditions
12:56 AM 61.0 °F 55.9 °F 83% 30.04 in 10.0 mi Calm Calm - N/A   Clear
1:56 AM 57.9 °F 54.0 °F 87% 30.05 in 10.0 mi Calm Calm - N/A   Clear
2:56 AM 57.0 °F 51.1 °F 81% 30.05 in 10.0 mi West 3.5 mph - N/A   Clear
3:56 AM 57.0 °F 51.1 °F 81% 30.04 in 10.0 mi Calm Calm - N/A   Clear
4:56 AM 57.0 °F 51.1 °F 81% 30.05 in 10.0 mi Calm Calm - N/A   Clear
5:56 AM 57.0 °F 51.1 °F 81% 30.06 in 10.0 mi Calm Calm - N/A   Clear
6:56 AM 57.0 °F 50.0 °F 77% 30.06 in 10.0 mi Calm Calm - N/A   Clear
7:56 AM 57.9 °F 51.1 °F 78% 30.08 in 10.0 mi Calm Calm - N/A   Clear
8:56 AM 62.1 °F 53.1 °F 72% 30.09 in 10.0 mi Calm Calm - N/A   Clear
9:56 AM 64.9 °F 53.1 °F 65% 30.09 in 10.0 mi Calm Calm - N/A   Clear
10:56 AM 69.1 °F 48.9 °F 49% 30.10 in 10.0 mi North 4.6 mph - N/A   Clear
11:56 AM 72.0 °F 50.0 °F 46% 30.09 in 10.0 mi NW 6.9 mph - N/A   Clear
12:56 PM 75.9 °F 55.0 °F 48% 30.07 in 10.0 mi North 5.8 mph - N/A   Clear
1:56 PM 78.1 °F 57.0 °F 48% 30.04 in 10.0 mi North 6.9 mph - N/A   Clear
2:56 PM 79.0 °F 53.1 °F 40% 30.02 in 10.0 mi NNW 8.1 mph - N/A   Clear
3:56 PM 77.0 °F 55.9 °F 48% 30.00 in 10.0 mi North 12.7 mph - N/A   Clear
4:56 PM 77.0 °F 53.1 °F 43% 29.99 in 10.0 mi NNW 11.5 mph - N/A   Clear
5:56 PM 73.0 °F 55.0 °F 53% 29.99 in 10.0 mi NNW 9.2 mph - N/A   Clear
6:56 PM 71.1 °F 50.0 °F 47% 30.00 in 10.0 mi NNW 9.2 mph - N/A   Clear
7:56 PM 69.1 °F 46.9 °F 45% 30.01 in 10.0 mi NNW 10.4 mph - N/A   Clear
8:56 PM 68.0 °F 43.0 °F 40% 30.03 in 10.0 mi NW 6.9 mph - N/A   Clear
9:56 PM 68.0 °F 43.0 °F 40% 30.04 in 10.0 mi NW 5.8 mph - N/A   Clear
10:56 PM 64.0 °F 46.9 °F 54% 30.05 in 10.0 mi Calm Calm - N/A   Clear
11:56 PM 63.0 °F 46.9 °F 56% 30.05 in 10.0 mi Calm Calm - N/A   Clear